Date String (YYYY-MM-DD hh:mm:ss) UTC,Instrument flags,Ambient pressure (hPa),Sample flow (lpm),Bypass flow (lpm),Sample temperature (°C),Ambient temperature (°C),ASC tube jacket temperature (°C),LED temperature (°C),Box temperature (°C),Sample RH (%),Span deviation,Mass concentration (μg/m³),Mass concentration (μg/m³),Mass concentration (μg/m³)
DateTimeUTC,F1_M11,P_M11,Q1_M11,Q2_M11,T1_M11,T2_M11,T3_M11,T4_M11,T5_M11,U1_M11,ZSPAN_M11,X0_M11,X2_M11,X1_M11
2023-01-19 18:00:00,,0821.8,5.01,0.00,23.7,22.5,00.0,32.5,25.5,06.8,0000.0,0009.82,0003.45,0002.68
2023-01-19 18:01:00,,0821.8,5.00,0.00,23.8,22.6,00.0,32.5,25.5,06.8,0000.0,0008.81,0003.36,0002.68
2023-01-19 18:02:00,,0821.8,5.00,0.00,23.8,22.6,00.0,32.5,25.5,06.8,0000.0,0008.35,0003.24,0002.66
2023-01-19 18:03:00,,0821.8,5.00,0.00,23.8,22.6,00.0,32.5,25.6,06.7,0000.0,0007.88,0003.17,0002.64
2023-01-19 18:04:00,,0821.8,5.00,0.00,23.8,22.6,00.0,32.5,25.6,06.8,0000.0,0008.45,0003.18,0002.64
2023-01-19 18:05:00,,0821.9,4.99,0.00,23.8,22.7,00.0,32.6,25.6,07.1,0000.0,0008.30,0003.25,0002.67
2023-01-19 18:06:00,,0821.8,5.00,0.00,23.8,22.7,00.0,32.6,25.6,07.5,0000.0,0008.34,0003.37,0002.76
2023-01-19 18:07:00,,0821.8,5.00,0.00,23.9,22.7,00.0,32.6,25.7,07.6,0000.0,0008.57,0003.51,0002.88
2023-01-19 18:08:00,,0821.8,5.00,0.00,23.9,22.7,00.0,32.6,25.7,08.0,0000.0,0009.88,0003.65,0002.99
2023-01-19 18:09:00,,0821.7,4.99,0.00,23.9,22.8,00.0,32.6,25.7,07.9,0000.0,0010.75,0003.79,0003.10
2023-01-19 18:10:00,,0821.7,5.00,0.00,23.9,22.8,00.0,32.6,25.7,07.7,0000.0,0012.50,0003.95,0003.15
2023-01-19 18:11:00,,0821.7,5.00,0.00,23.9,22.8,00.0,32.6,25.8,07.5,0000.0,0012.92,0004.07,0003.20
2023-01-19 18:12:00,,0821.7,5.00,0.00,23.9,22.8,00.0,32.6,25.8,07.3,0000.0,0013.20,0004.20,0003.25
2023-01-19 18:13:00,,0821.7,5.00,0.00,24.0,22.9,00.0,32.7,25.9,07.6,0000.0,0013.36,0004.29,0003.29
2023-01-19 18:14:00,,0821.7,5.01,0.00,24.0,22.9,00.0,32.7,25.9,07.8,0000.0,0014.23,0004.43,0003.37
2023-01-19 18:15:00,,0821.7,5.00,0.00,24.0,22.9,00.0,32.7,25.9,07.9,0000.0,0014.19,0004.54,0003.45
2023-01-19 18:16:00,,0821.7,5.00,0.00,24.0,22.9,00.0,32.7,25.9,07.9,0000.0,0015.20,0004.60,0003.50
2023-01-19 18:17:00,,0821.7,5.00,0.00,24.0,22.9,00.0,32.7,25.9,08.0,0000.0,0016.07,0004.66,0003.54
2023-01-19 18:18:00,,0821.7,4.99,0.00,24.0,22.9,00.0,32.7,25.9,08.0,0000.0,0016.56,0004.63,0003.54
2023-01-19 18:19:00,,0821.6,5.00,0.00,24.0,22.9,00.0,32.8,26.0,08.0,0000.0,0016.13,0004.57,0003.54
2023-01-19 18:20:00,,0821.6,5.00,0.00,24.1,22.9,00.0,32.8,26.0,08.0,0000.0,0017.04,0004.51,0003.54
2023-01-19 18:21:00,,0821.6,5.00,0.00,24.1,22.9,00.0,32.8,26.0,08.0,0000.0,0016.46,0004.51,0003.58
2023-01-19 18:22:00,,0821.6,5.00,0.00,24.1,23.0,00.0,32.8,26.0,08.0,0000.0,0015.93,0004.52,0003.65
2023-01-19 18:23:00,,0821.7,4.99,0.00,24.1,23.0,00.0,32.8,26.0,08.1,0000.0,0015.78,0004.53,0003.75
2023-01-19 18:24:00,,0821.6,5.00,0.00,24.1,23.0,00.0,32.8,26.0,08.2,0000.0,0015.79,0004.61,0003.85
2023-01-19 18:25:00,,0821.6,5.01,0.00,24.1,23.0,00.0,32.8,26.0,08.2,0000.0,0015.49,0004.67,0003.96
2023-01-19 18:26:00,,0821.6,5.01,0.00,24.1,23.0,00.0,32.9,26.0,08.8,0000.0,0014.55,0004.76,0004.10
2023-01-19 18:27:00,,0821.5,5.01,0.00,24.2,23.0,00.0,32.9,26.0,09.2,0000.0,0014.70,0004.95,0004.34
2023-01-19 18:28:00,,0821.6,5.00,0.00,24.2,23.0,00.0,32.9,26.0,09.2,0000.0,0014.72,0005.17,0004.61
2023-01-19 18:29:00,,0821.6,5.00,0.00,24.2,23.0,00.0,32.9,26.0,09.0,0000.0,0014.01,0005.40,0004.86
2023-01-19 18:30:00,,0821.6,5.03,0.00,24.2,23.0,00.0,32.9,26.0,08.7,0000.0,0014.47,0005.65,0005.13
2023-01-19 18:31:00,,0821.6,5.00,0.00,24.2,23.0,00.0,32.9,26.0,08.6,0000.0,0012.84,0005.87,0005.37
2023-01-19 18:32:00,,0821.6,5.00,0.00,24.2,23.0,00.0,32.9,26.1,08.6,0000.0,0011.93,0006.05,0005.59
2023-01-19 18:33:00,,0821.5,4.98,0.00,24.2,23.0,00.0,32.9,26.1,08.6,0000.0,0012.02,0006.20,0005.77
2023-01-19 18:34:00,,0821.6,5.01,0.00,24.2,23.0,00.0,32.9,26.1,08.6,0000.0,0012.39,0006.39,0005.94
2023-01-19 18:35:00,,0821.6,5.01,0.00,24.2,23.0,00.0,33.0,26.1,08.7,0000.0,0012.79,0006.56,0006.10
2023-01-19 18:36:00,,0821.5,5.01,0.00,24.2,23.0,00.0,33.0,26.1,08.7,0000.0,0013.20,0006.71,0006.24
2023-01-19 18:37:00,,0821.6,5.01,0.00,24.3,23.0,00.0,33.0,26.1,08.5,0000.0,0014.01,0006.79,0006.33
2023-01-19 18:38:00,,0821.5,5.00,0.00,24.3,23.0,00.0,33.0,26.1,08.4,0000.0,0013.13,0006.78,0006.33
2023-01-19 18:39:00,,0821.5,5.00,0.00,24.3,23.1,00.0,33.0,26.1,08.3,0000.0,0012.37,0006.72,0006.29
2023-01-19 18:40:00,,0821.5,4.99,0.00,24.3,23.1,00.0,33.0,26.1,08.5,0000.0,0013.38,0006.71,0006.29
2023-01-19 18:41:00,,0821.5,5.00,0.00,24.3,23.1,00.0,33.0,26.1,08.6,0000.0,0012.89,0006.71,0006.30
2023-01-19 18:42:00,,0821.5,5.00,0.00,24.3,23.1,00.0,33.0,26.1,07.9,0000.0,0012.50,0006.65,0006.23
2023-01-19 18:43:00,,0821.5,5.00,0.00,24.3,23.0,00.0,33.0,26.1,07.5,0000.0,0012.15,0006.48,0006.09
2023-01-19 18:44:00,,0821.5,4.99,0.00,24.3,23.0,00.0,33.0,26.1,07.4,0000.0,0012.43,0006.31,0005.94
2023-01-19 18:45:00,,0821.5,5.01,0.00,24.3,23.0,00.0,33.1,26.1,07.5,0000.0,0013.15,0006.13,0005.79
2023-01-19 18:46:00,,0821.6,5.01,0.00,24.3,23.0,00.0,33.1,26.2,07.7,0000.0,0012.75,0006.00,0005.69
2023-01-19 18:47:00,,0821.6,4.99,0.00,24.3,23.0,00.0,33.1,26.2,08.0,0000.0,0012.40,0005.92,0005.64
2023-01-19 18:48:00,,0821.5,4.99,0.00,24.3,23.0,00.0,33.1,26.2,08.5,0000.0,0011.58,0005.91,0005.64
2023-01-19 18:49:00,,0821.6,5.00,0.00,24.3,23.0,00.0,33.1,26.2,08.6,0000.0,0011.86,0005.98,0005.68
2023-01-19 18:50:00,,0821.6,5.00,0.00,24.3,23.0,00.0,33.1,26.2,08.3,0000.0,0012.99,0005.98,0005.69
2023-01-19 18:51:00,,0821.7,4.99,0.00,24.3,23.0,00.0,33.1,26.2,08.3,0000.0,0012.09,0005.97,0005.68
2023-01-19 18:52:00,,0821.7,5.00,0.00,24.3,23.0,00.0,33.1,26.2,08.4,0000.0,0011.83,0005.96,0005.67
2023-01-19 18:53:00,,0821.7,4.99,0.00,24.3,23.0,00.0,33.1,26.2,08.3,0000.0,0011.94,0006.00,0005.72
2023-01-19 18:54:00,,0821.6,5.00,0.00,24.3,23.0,00.0,33.1,26.2,08.4,0000.0,0012.14,0006.15,0005.85
2023-01-19 18:55:00,,0821.7,5.02,0.00,24.3,23.0,00.0,33.1,26.1,08.7,0000.0,0012.15,0006.35,0006.04
2023-01-19 18:56:00,,0821.7,5.00,0.00,24.3,23.0,00.0,33.1,26.1,08.6,0000.0,0011.01,0006.56,0006.23
2023-01-19 18:57:00,,0821.7,5.00,0.00,24.3,23.0,00.0,33.1,26.2,08.6,0000.0,0011.26,0006.72,0006.38
2023-01-19 18:58:00,,0821.7,5.01,0.00,24.3,23.0,00.0,33.1,26.2,08.6,0000.0,0011.39,0006.83,0006.47
2023-01-19 18:59:00,,0821.7,5.00,0.00,24.4,23.0,00.0,33.1,26.2,08.2,0000.0,0011.44,0006.85,0006.49
